User: anonymous
Location: Unspecified
(0.0000°N, 0.0000°E)
Time: 04:47:39
(UTC+02:00)
Language:

Cosmos 1703 - Orbit

View from above orbital plane
View from above orbital plane
View from above satellite
View from above satellite

Ground track
Ground track

The orbit data is extracted from the following two-line orbital elements,

1 16262U 85108A   14110.48876696  .00007086  00000-0  49282-3 0  4129
2 16262 082.4921 298.9252 0011408 303.8762 056.1379 15.05308639544964
Epoch (UTC): 20 April 2014 11:43:49
Eccentricity: 0.0011408
inclination: 82.4921°
perigee height: 542 km
apogee height: 558 km
right ascension of ascending node: 298.9252°
argument of perigee: 303.8762°
revolutions per day: 15.05308639
mean anomaly at epoch: 56.1379°
orbit number at epoch: 54496

The dashed part of the orbit path shows where the satellite is in the earth's shadow,  

DLR